Weather History for Winter Haven, FL

Change the Weather History Date:

Saturday, November 2, 2013

  Actual Average Record
Temperature  
Mean Temperature 70 °F -  
Max Temperature 75 °F 82 °F 89 °F (1951)
Min Temperature 64 °F 62 °F 44 °F (1954)
Cooling Degree Days 4    
Growing Degree Days 20 (Base 50)    
Moisture  
Dew Point 66 °F    
Average Humidity 89    
Maximum Humidity 97    
Minimum Humidity 73    
Precipitation  
Precipitation 0.09 in - - ()
Sea Level Pressure  
Sea Level Pressure 29.92 in    
Wind  
Wind Speed 8 mph (WNW)    
Max Wind Speed 17 mph    
Max Gust Speed -    
Visibility 9 miles    
Events Rain    
Averages and records for this station are not official NWS values.
T = Trace of Precipitation, MM = Missing Value Source: NWS Daily Summary

Daily Weather History Graph

Daily Weather History Graph

Search for Another Location

Airport:

Trip Planner

Search our weather history database for the weather conditions in past years. The results will help you decide how hot, cold, wet, or windy it might be!

Date:

Astronomy

Nov. 02, 2013 Rise Set
Actual Time 7:39 AM EDT 6:41 PM EDT
Civil Twilight 7:14 AM EDT 7:05 PM EDT
Nautical Twilight 6:47 AM EDT 7:33 PM EDT
Astronomical Twilight 6:19 AM EDT 8:01 PM EDT
Moon 6:38 AM EDT (11/2) 6:10 PM EDT (11/2)
Length of Visible Light 11h 50m
Length of Day
11h 02m
Waning Crescent, 1% of the Moon is Illuminated
Nov 2
Waning Crescent
Nov 3
New
Nov 10
First Quarter
Nov 17
Full
Nov 25
Last Quarter

Hourly Weather History & Observations

Time (EDT) Temp. Dew Point Humidity Pressure Visibility Wind Dir Wind Speed Gust Speed Precip Events Conditions
12:53 AM 72.0 °F 70.0 °F 93% 29.94 in 10.0 mi SSW 8.1 mph - N/A   Clear
1:53 AM 72.0 °F 70.0 °F 93% 29.91 in 10.0 mi SSW 8.1 mph - N/A   Clear
2:53 AM 73.0 °F 71.1 °F 93% 29.88 in 10.0 mi South 8.1 mph - N/A   Clear
3:53 AM 72.0 °F 70.0 °F 93% 29.86 in 10.0 mi SSW 6.9 mph - N/A   Clear
4:53 AM 72.0 °F 71.1 °F 97% 29.85 in 10.0 mi South 8.1 mph - N/A   Clear
5:53 AM 72.0 °F 70.0 °F 93% 29.86 in 10.0 mi SSW 8.1 mph - N/A   Clear
6:53 AM 72.0 °F 70.0 °F 93% 29.86 in 10.0 mi SSW 5.8 mph - N/A   Clear
7:53 AM 72.0 °F 70.0 °F 93% 29.87 in 10.0 mi South 8.1 mph - N/A   Clear
8:53 AM 73.0 °F 71.1 °F 93% 29.89 in 10.0 mi SSW 8.1 mph - N/A   Mostly Cloudy
9:53 AM 75.0 °F 72.0 °F 90% 29.90 in 10.0 mi South 9.2 mph - N/A   Overcast
10:11 AM 75.0 °F 72.0 °F 90% 29.91 in 10.0 mi SW 5.8 mph - N/A   Overcast
10:53 AM 69.1 °F 66.9 °F 93% 29.93 in 10.0 mi NNW 9.2 mph - 0.01 in   Overcast
11:12 AM 68.0 °F 66.0 °F 93% 29.95 in 2.0 mi NW 15.0 mph - 0.03 in Rain Rain
11:21 AM 66.9 °F 64.9 °F 93% 29.95 in 2.5 mi NW 16.1 mph - 0.04 in Rain Light Rain
11:29 AM 66.9 °F 64.9 °F 93% 29.96 in 4.0 mi NW 15.0 mph - 0.04 in Rain Light Rain
11:50 AM 66.2 °F 64.4 °F 94% 29.97 in 4.0 mi NW 17.3 mph - 0.05 in Rain Light Rain
11:53 AM 66.9 °F 64.0 °F 90% 29.96 in 3.0 mi NNW 16.1 mph - 0.05 in Rain Light Rain
12:12 PM 66.9 °F 64.0 °F 90% 29.96 in 10.0 mi NNW 10.4 mph - 0.00 in   Overcast
12:53 PM 64.9 °F 62.1 °F 90% 29.94 in 10.0 mi NNW 9.2 mph - 0.00 in   Overcast
1:53 PM 66.9 °F 60.1 °F 79% 29.88 in 10.0 mi SE 4.6 mph - 0.01 in   Overcast
2:53 PM 69.1 °F 60.1 °F 73% 29.88 in 10.0 mi Variable 4.6 mph - N/A   Mostly Cloudy
3:53 PM 69.1 °F 61.0 °F 75% 29.87 in 10.0 mi NW 3.5 mph - N/A   Clear
4:53 PM 70.0 °F 63.0 °F 78% 29.88 in 10.0 mi NNW 8.1 mph - N/A   Mostly Cloudy
5:53 PM 69.1 °F 63.0 °F 81% 29.89 in 10.0 mi NNW 5.8 mph - N/A   Clear
6:53 PM 68.0 °F 64.0 °F 87% 29.94 in 10.0 mi WNW 8.1 mph - N/A   Mostly Cloudy
7:53 PM 66.9 °F 62.1 °F 84% 29.96 in 10.0 mi NW 3.5 mph - 0.02 in   Scattered Clouds
8:51 PM 68.0 °F 64.4 °F 88% 29.97 in 10.0 mi NW 4.6 mph - N/A   Mostly Cloudy
8:53 PM 68.0 °F 64.9 °F 90% 29.96 in 10.0 mi NNW 6.9 mph - N/A   Mostly Cloudy
8:57 PM 68.0 °F 64.9 °F 90% 29.97 in 10.0 mi NNW 5.8 mph - N/A   Mostly Cloudy
9:06 PM 68.0 °F 64.9 °F 90% 29.98 in 10.0 mi NNW 6.9 mph - N/A   Mostly Cloudy
9:25 PM 66.9 °F 64.0 °F 90% 29.97 in 10.0 mi North 12.7 mph - N/A   Scattered Clouds
9:53 PM 66.0 °F 64.0 °F 93% 29.97 in 10.0 mi North 8.1 mph - N/A   Clear
10:53 PM 64.9 °F 63.0 °F 93% 29.99 in 10.0 mi NNE 4.6 mph - N/A   Clear
11:53 PM 64.9 °F 62.1 °F 90% 29.99 in 10.0 mi North 9.2 mph - N/A   Clear